Weather History for TTCP - February, 2013

Change the Weather History Date:

Saturday, February 23, 2013

  Actual Average Record
Temperature  
Mean Temperature 78 °F -  
Max Temperature 84 °F 83 °F 87 °F (1999)
Min Temperature 73 °F 73 °F 71 °F (2008)
Cooling Degree Days 14    
Growing Degree Days 28 (Base 50)    
Moisture  
Dew Point 71 °F    
Average Humidity 79    
Maximum Humidity 94    
Minimum Humidity 70    
Precipitation  
Precipitation 0.00 in - - ()
Sea Level Pressure  
Sea Level Pressure 29.93 in    
Wind  
Wind Speed 3 mph ()    
Max Wind Speed 16 mph    
Max Gust Speed -    
Visibility 6.0 miles    
Events Rain    
Averages and records for this station are not official NWS values.
T = Trace of Precipitation, MM = Missing Value Source: Averaged Metar Reports

Daily Weather History Graph

Daily Weather History Graph

Search for Another Location

Airport or City:

Trip Planner

Search our weather history database for the weather conditions in past years. The results will help you decide how hot, cold, wet, or windy it might be!

Date:

Astronomy

Feb. 23, 2013 Rise Set
Actual Time 6:20 AM AST 6:12 PM AST
Civil Twilight 5:59 AM AST 6:33 PM AST
Nautical Twilight 5:34 AM AST 6:58 PM AST
Astronomical Twilight 5:10 AM AST 7:23 PM AST
Moon 4:28 PM AST (2/23) 4:26 AM AST (2/23)
Length of Visible Light 12h 34m
Length of Day
11h 51m
Waxing Gibbous, 95% of the Moon is Illuminated
Feb 23
Waxing Gibbous
Feb 25
Full
Mar 4
Last Quarter
Mar 11
New
Mar 19
First Quarter

Hourly Weather History & Observations

Time (AST) Temp. Heat Index Dew Point Humidity Pressure Visibility Wind Dir Wind Speed Gust Speed Precip Events Conditions
12:00 AM 75.2 °F - 68.0 °F 78% 29.98 in 6.2 mi Calm Calm - N/A   Partly Cloudy
1:00 AM 75.2 °F - 69.8 °F 83% 29.95 in 6.2 mi Calm Calm - N/A   Partly Cloudy
2:00 AM 75.2 °F - 69.8 °F 83% 29.92 in 6.2 mi Calm Calm - N/A   Partly Cloudy
3:00 AM 75.2 °F - 69.8 °F 83% 29.89 in 6.2 mi NE 4.6 mph - N/A   Partly Cloudy
4:00 AM 75.2 °F - 69.8 °F 83% 29.89 in 6.2 mi NE 4.6 mph - N/A   Partly Cloudy
5:00 AM 77.0 °F - 71.6 °F 83% 29.92 in 6.2 mi NE 5.8 mph - N/A   Scattered Clouds
6:00 AM 75.2 °F - 69.8 °F 83% 29.92 in 6.2 mi NE 6.9 mph - N/A Rain Light Rain
7:00 AM 73.4 °F - 69.8 °F 88% 29.95 in 6.2 mi Calm Calm - N/A   Mostly Cloudy
7:10 AM 73.4 °F - 69.8 °F 88% 29.95 in 2.5 mi Calm Calm - N/A Rain Light Rain Showers
8:00 AM 73.4 °F - 71.6 °F 94% 29.95 in 5.0 mi Calm Calm - N/A Rain Light Rain
9:00 AM 77.0 °F - 73.4 °F 89% 29.95 in 6.2 mi Calm Calm - N/A   Scattered Clouds
10:00 AM 82.4 °F 88.2 °F 73.4 °F 74% 29.98 in 6.2 mi East 9.2 mph - N/A   Mostly Cloudy
11:00 AM 82.4 °F 88.2 °F 73.4 °F 74% 29.98 in 6.2 mi ESE 11.5 mph - N/A   Scattered Clouds
12:00 PM 84.2 °F 90.9 °F 73.4 °F 70% 29.95 in 6.2 mi ESE 15.0 mph - N/A   Scattered Clouds
1:00 PM 82.4 °F 87.2 °F 71.6 °F 70% 29.95 in 6.2 mi ESE 16.1 mph - N/A   Scattered Clouds
3:00 PM 80.6 °F 84.6 °F 71.6 °F 74% 29.89 in 6.2 mi ESE 12.7 mph - N/A   Scattered Clouds
4:00 PM 82.4 °F 87.2 °F 71.6 °F 70% 29.86 in 6.2 mi ESE 11.5 mph - N/A   Scattered Clouds
5:00 PM 80.6 °F 84.6 °F 71.6 °F 74% 29.89 in 6.2 mi East 8.1 mph - N/A   Scattered Clouds
6:00 PM 80.6 °F 83.9 °F 69.8 °F 70% 29.89 in 6.2 mi East 6.9 mph - N/A   Scattered Clouds
7:00 PM 78.8 °F - 69.8 °F 74% 29.89 in 6.2 mi Calm Calm - N/A   Scattered Clouds
8:00 PM 78.8 °F - 69.8 °F 74% 29.92 in 6.2 mi Calm Calm - N/A   Scattered Clouds
9:00 PM 78.8 °F - 69.8 °F 74% 29.92 in 6.2 mi Calm Calm - N/A   Scattered Clouds
10:00 PM 77.0 °F - 69.8 °F 78% 29.92 in 6.2 mi Calm Calm - N/A   Scattered Clouds
11:00 PM 77.0 °F - 69.8 °F 78% 29.92 in 6.2 mi Calm Calm - N/A   Scattered Clouds